Theta_e
324 324 324 325 324 322 323 321 319 321 324 323 318 317 318 317 316 317 318 317 320 323 325 327 328 328 329 330 330 331 333 334 335 341 346 347 348 350 352 355 356 357 358 358 358 357 356 353 347 345 344 340 338 337 337 337 337 337 338 338 338 339 340
324 325 325 324 325 325 323 319 320 323 325 323 320 317 317 317 315 316 316 316 318 317 320 326 328 327 327 329 329 330 332 334 336 341 345 347 348 349 351 354 356 356 358 358 357 356 355 351 346 343 342 340 338 336 335 335 336 336 337 337 338 338 338
324 325 325 322 324 326 324 322 324 323 319 319 320 318 317 317 316 316 315 315 317 317 319 326 329 328 328 328 329 330 330 332 335 339 343 345 347 348 351 353 355 357 357 357 356 354 353 350 345 341 342 341 340 337 335 334 334 334 335 336 337 338 338
324 324 323 320 321 325 325 325 325 324 321 319 320 319 318 317 317 317 316 315 316 320 324 327 329 330 331 330 330 331 330 331 334 337 340 343 345 348 350 352 354 356 356 355 355 354 354 354 350 348 347 345 343 340 337 335 334 334 333 334 335 336 337
323 322 323 322 322 323 322 322 321 321 323 322 322 321 319 317 317 317 317 315 317 324 328 328 328 330 331 331 332 332 332 332 332 335 337 340 345 347 349 351 353 355 355 355 355 355 355 356 356 355 353 350 348 345 341 337 335 334 333 333 334 335 335
320 322 325 325 325 325 323 322 321 321 322 321 320 320 320 318 317 317 317 316 318 325 329 328 329 329 329 330 330 331 334 333 331 334 337 341 346 347 348 350 351 353 355 354 354 355 355 355 356 356 354 353 352 350 346 343 339 336 334 332 332 333 333
322 325 326 325 325 327 325 324 324 325 323 320 318 317 320 319 317 317 317 315 320 327 329 328 328 329 328 328 330 330 332 333 334 334 335 341 347 349 348 348 349 351 353 353 354 354 355 355 355 355 355 354 352 350 349 348 345 340 338 335 333 332 332
324 325 326 326 326 326 325 324 325 325 324 323 321 321 322 320 317 317 316 315 320 328 331 330 329 329 329 329 329 330 331 332 333 335 338 344 348 349 347 345 346 346 349 352 352 353 354 354 353 355 355 354 352 350 350 348 345 343 341 340 338 336 334
322 322 322 323 324 324 325 325 325 325 325 325 324 323 323 320 318 318 317 315 320 327 331 331 330 329 329 329 329 330 331 332 331 335 342 345 345 346 346 345 345 344 346 349 350 351 353 353 353 353 353 355 354 352 350 348 346 345 344 343 343 340 339
320 320 320 320 321 323 323 325 326 325 325 324 323 321 319 319 321 321 318 317 321 328 332 330 329 329 329 330 330 329 330 333 336 339 343 341 341 346 347 346 345 344 344 345 345 346 348 350 352 350 349 353 354 353 352 350 350 349 347 346 345 343 341
323 323 325 325 325 322 320 322 324 325 326 325 324 320 318 320 322 320 320 322 322 326 330 330 329 330 330 330 331 330 333 338 339 343 346 343 339 342 343 342 343 342 341 340 339 340 342 347 351 350 347 349 352 353 353 351 352 352 349 347 346 345 343
324 324 325 324 324 324 321 321 322 323 325 325 323 320 320 324 321 318 324 328 324 324 329 330 329 329 330 330 330 331 335 337 335 341 345 343 339 338 335 332 334 335 334 336 336 337 340 344 349 350 349 347 347 349 351 352 353 354 352 349 347 346 345
321 321 322 322 323 325 324 324 323 323 324 324 323 321 323 326 322 320 327 330 326 327 330 329 329 330 330 330 330 330 332 333 332 336 339 336 336 339 335 329 328 329 330 332 333 334 337 341 344 347 349 349 346 345 347 349 350 352 353 350 347 347 345
320 320 321 321 323 323 323 324 325 325 325 324 324 324 325 326 324 325 328 330 329 330 330 329 329 330 329 329 329 329 329 330 329 333 335 333 332 335 338 338 333 328 328 330 329 330 333 336 339 342 346 347 346 344 345 346 348 351 351 350 348 347 345
320 320 320 320 322 322 322 323 324 324 324 324 324 325 326 325 325 326 327 328 328 330 330 330 330 329 330 330 330 329 330 330 329 329 332 332 331 329 334 342 339 330 328 329 328 329 329 330 334 337 340 342 343 346 346 343 344 347 349 350 349 346 345
319 319 320 319 321 321 320 320 323 323 323 323 324 325 325 325 325 326 325 324 327 329 330 330 331 330 331 331 331 330 329 329 329 329 330 330 332 330 329 336 337 330 328 329 327 328 328 329 331 332 336 339 341 343 344 344 344 347 349 349 346 344 344
319 319 319 319 319 319 319 320 322 323 323 324 324 324 326 326 325 325 323 324 328 330 329 329 331 330 329 330 330 329 330 330 329 330 330 328 330 329 329 334 336 330 328 329 327 327 327 328 330 331 333 337 338 339 342 346 348 348 347 346 344 344 345
319 319 318 319 318 318 320 323 324 324 324 324 324 324 325 326 326 326 326 327 329 330 329 329 330 330 330 330 329 328 330 331 330 330 331 331 331 331 331 335 335 329 327 328 326 326 327 328 331 334 333 333 336 337 339 343 345 345 344 343 343 343 344
318 318 318 319 319 320 322 325 327 327 326 326 326 327 327 327 326 326 326 327 328 329 329 330 330 330 330 328 328 331 331 332 334 334 332 332 331 333 335 336 333 328 326 327 326 327 327 328 333 335 334 336 340 340 339 339 341 341 341 342 341 341 342
318 318 319 319 321 321 322 325 327 328 329 330 328 326 327 327 326 327 329 328 327 327 328 328 327 328 329 328 331 334 334 334 335 333 330 331 334 338 342 341 335 329 326 326 326 326 327 330 334 337 338 340 343 343 340 338 339 340 340 341 341 340 340
318 318 317 319 321 320 321 325 330 331 332 333 331 328 328 330 332 335 337 335 332 331 329 329 330 329 330 331 333 334 334 336 337 335 333 337 339 339 338 336 331 328 326 326 327 327 329 333 336 339 342 344 345 345 343 339 338 340 340 340 341 340 341
316 317 317 319 319 319 321 325 331 333 332 334 335 331 331 337 339 339 340 338 337 337 337 338 339 336 333 333 332 331 330 335 340 341 339 337 336 334 333 332 332 331 329 329 330 330 334 337 337 339 341 343 344 345 344 341 339 340 340 340 341 341 341
314 315 317 318 318 320 325 328 331 332 331 333 333 326 327 337 341 340 340 341 341 343 345 346 346 340 333 331 332 334 332 336 345 349 347 344 339 337 337 335 335 335 334 334 335 336 338 339 338 338 338 341 344 345 342 340 339 340 340 340 341 341 341
314 314 315 317 317 319 325 329 330 329 330 334 331 323 325 337 340 340 341 342 342 346 347 348 347 342 335 334 343 350 349 349 352 351 348 345 342 343 343 340 338 339 338 339 341 341 340 339 339 339 339 342 346 345 341 341 342 341 340 341 341 341 341
313 314 314 315 317 319 321 324 328 329 328 328 326 324 329 338 339 340 342 341 342 345 345 346 347 346 343 343 348 352 353 354 353 349 345 344 343 344 345 342 342 344 344 343 343 343 341 340 341 341 340 343 347 346 340 340 342 343 343 342 341 342 342
313 313 314 314 315 317 318 319 322 325 323 322 326 331 336 338 338 340 342 341 342 343 344 345 347 347 347 346 347 350 352 354 354 350 347 348 348 348 347 345 347 349 348 344 343 344 342 341 342 342 341 343 348 348 343 341 343 346 347 345 342 343 342
313 314 314 314 315 318 322 323 322 321 322 325 332 336 337 337 338 339 341 342 342 341 342 343 344 345 347 347 348 350 352 353 352 350 349 350 350 350 351 351 352 352 351 347 344 344 344 343 343 345 345 345 347 349 351 351 349 349 348 345 344 344 344
315 314 314 316 318 322 325 326 326 327 328 332 335 335 333 336 338 338 340 342 341 340 341 342 343 344 346 346 347 349 349 351 351 350 349 350 350 351 352 352 353 355 355 353 351 348 346 344 346 348 348 347 345 346 349 349 347 346 346 345 344 344 345
317 316 316 318 320 321 323 325 328 330 332 333 334 334 334 336 338 338 340 341 340 339 340 341 342 343 344 345 345 346 347 349 350 350 349 350 351 351 351 351 352 353 355 355 354 353 350 347 346 348 348 346 345 345 346 345 345 346 346 346 347 348 347
316 317 317 318 319 320 322 324 326 328 330 331 332 333 335 336 337 338 338 338 338 338 339 341 342 343 343 344 345 345 347 347 348 348 349 349 350 351 351 351 351 352 353 354 354 354 353 350 348 349 347 347 347 347 347 347 348 348 347 348 348 348 349
315 316 317 317 319 319 320 322 322 324 328 331 331 333 335 336 336 337 337 337 337 338 338 340 342 343 343 344 345 346 346 346 347 347 348 348 349 350 350 350 351 351 352 352 352 353 353 353 352 351 350 351 351 350 351 353 352 351 353 356 356 354 355
314 315 316 316 317 317 318 319 320 321 326 330 332 333 334 335 336 336 336 336 336 337 338 339 340 342 343 343 344 345 345 345 346 346 346 347 347 348 349 349 350 350 351 351 351 351 350 350 351 351 351 351 351 350 351 351 350 350 353 357 360 360 360
313 314 315 316 317 316 316 317 319 321 326 330 331 332 333 335 336 336 336 335 335 336 336 337 338 339 341 342 343 343 343 343 344 344 345 346 346 347 347 348 348 348 349 349 349 349 348 348 348 348 347 346 346 346 346 346 348 349 350 352 355 356 354
312 313 315 316 317 318 318 320 323 324 324 325 326 329 333 335 336 336 336 335 335 335 335 335 336 337 338 340 342 343 343 344 344 344 344 345 345 346 346 346 346 347 347 347 347 347 347 347 346 346 345 342 342 342 341 342 344 346 347 349 350 350 350
313 314 315 316 316 317 318 319 321 321 319 318 319 322 327 331 334 336 336 336 335 335 334 335 335 336 337 339 341 342 342 343 344 344 344 344 344 345 346 346 346 346 345 346 346 346 346 346 346 346 345 344 343 342 342 343 343 342 342 343 343 344 345
313 314 314 314 315 315 315 317 318 318 318 317 317 318 322 327 332 335 335 335 334 334 334 335 335 336 337 337 338 339 340 341 342 343 343 344 344 344 345 345 345 345 345 346 346 346 346 346 346 346 346 345 344 345 345 344 343 341 339 338 338 340 340
313 313 313 313 314 315 315 316 317 317 317 316 316 318 322 327 331 334 335 334 332 332 333 335 335 336 336 336 337 337 337 339 340 341 342 343 343 343 344 344 344 345 345 344 345 345 345 344 345 345 345 345 344 344 344 345 344 342 340 337 335 336 337
Wind_Speed
18 21 20 18 15 9 9 12 12 12 11 10 8 6 5 5 7 7 8 10 8 6 7 8 9 9 11 13 13 14 16 18 20 20 21 23 24 26 29 31 33 34 34 35 38 40 41 44 46 46 46 45 46 47 48 49 49 50 50 49 48 47 46
20 22 22 20 19 13 8 10 13 11 11 10 8 7 6 7 9 7 10 13 11 8 7 8 14 16 15 15 15 15 15 16 18 20 21 23 25 26 29 31 31 32 34 36 38 40 42 45 48 47 46 45 45 46 47 48 49 50 50 50 49 48 48
18 19 19 16 20 21 12 8 11 11 10 10 8 7 8 9 9 8 11 14 11 10 7 5 10 15 16 16 16 16 16 16 18 21 22 24 25 25 26 28 29 30 34 37 39 40 43 46 50 49 47 46 45 45 45 47 49 49 49 49 49 49 49
16 15 14 12 15 19 15 10 11 11 8 8 9 8 7 8 8 8 9 11 9 8 10 9 9 9 10 13 13 14 16 17 20 22 22 24 24 24 25 27 29 32 34 36 38 39 40 42 45 46 46 47 47 45 45 46 47 48 48 48 48 49 49
16 12 12 14 14 15 14 12 12 12 9 6 7 9 8 8 8 7 7 8 5 2 5 11 12 10 9 10 10 11 13 17 20 21 22 23 24 25 27 27 29 32 33 34 35 35 35 35 37 38 41 44 45 45 46 46 45 46 47 47 48 49 49
13 11 13 17 17 16 15 12 12 12 11 8 8 9 10 9 8 7 7 7 3 3 3 5 8 9 10 11 12 11 11 15 17 18 19 20 22 24 26 26 26 27 28 29 30 30 31 32 34 36 39 41 42 44 46 46 46 46 46 47 48 48 49
10 12 15 17 19 19 17 14 13 13 12 11 9 8 8 9 10 9 8 8 3 4 4 2 3 6 8 10 12 12 12 13 13 14 15 14 15 16 17 18 19 20 21 24 26 28 31 33 35 36 37 40 43 46 46 45 47 47 46 47 48 48 49
7 9 12 15 18 19 17 15 15 14 14 13 10 8 7 7 10 9 8 9 5 4 4 3 4 7 8 8 10 12 12 11 10 9 8 9 10 11 13 14 16 17 18 21 25 29 33 35 36 35 36 39 43 46 46 47 49 49 48 47 47 48 48
8 8 10 13 17 16 12 13 17 17 18 18 14 11 8 7 10 12 9 8 4 5 5 4 4 6 6 6 6 8 9 10 8 5 3 6 8 10 13 15 16 18 19 22 26 30 33 35 36 36 37 38 39 43 47 49 50 49 48 48 48 48 47
11 11 9 8 11 13 11 12 18 20 21 21 16 11 10 9 10 12 10 7 3 5 5 6 6 6 6 6 5 5 6 7 6 4 3 4 6 9 11 13 15 17 20 22 25 28 32 34 35 37 39 38 37 39 43 46 45 46 48 48 49 49 48
5 3 1 3 2 10 16 17 19 19 20 22 16 11 10 9 9 11 11 10 7 5 7 7 7 7 5 4 4 4 3 3 3 3 3 4 6 8 9 10 12 14 17 20 23 25 29 32 33 35 38 39 37 37 40 41 40 41 46 49 49 50 50
2 3 4 6 3 6 13 16 19 18 18 21 20 15 12 10 9 10 10 12 13 8 6 7 7 6 4 3 4 3 1 5 8 5 3 5 6 6 6 7 9 11 14 18 21 24 27 29 31 33 35 37 39 40 41 40 38 38 42 47 49 50 50
3 3 3 2 1 2 4 8 12 15 16 19 19 18 16 14 11 9 8 12 14 12 10 8 6 5 5 5 7 7 7 9 10 8 8 7 5 6 6 6 5 7 10 14 17 21 25 27 30 32 34 35 39 42 43 43 40 38 41 46 49 50 51
4 4 3 2 2 3 5 7 9 10 13 15 15 16 17 18 16 14 12 13 13 12 13 13 12 11 12 12 13 16 18 18 17 14 12 10 7 5 5 5 6 9 10 11 12 15 20 25 29 32 34 36 38 41 43 44 43 41 41 45 49 50 51
5 5 5 4 4 5 7 10 11 12 13 13 13 13 14 15 15 16 16 15 13 11 10 12 15 16 15 14 14 17 20 22 23 21 18 15 13 13 10 6 8 15 16 14 13 12 15 20 25 30 34 36 38 38 40 43 46 44 42 44 48 50 50
5 5 6 7 6 7 11 13 14 15 15 14 13 12 13 13 13 15 15 13 10 8 9 11 12 13 13 12 14 17 18 21 22 22 22 21 19 19 18 15 17 22 22 18 18 18 17 17 20 26 31 35 37 38 40 42 42 41 42 44 48 49 49
4 5 4 5 5 8 12 13 15 17 16 15 14 14 14 14 13 13 13 10 8 8 10 10 10 11 13 13 15 17 18 19 20 21 23 24 23 24 23 21 24 27 26 22 21 22 21 18 18 21 25 31 35 37 38 39 38 38 42 46 48 48 47
4 3 1 3 7 9 6 3 8 15 17 18 17 16 16 17 14 13 12 10 9 9 9 10 10 11 13 15 17 18 18 19 20 22 23 23 24 25 23 22 26 29 29 27 24 23 23 20 17 19 22 26 31 34 36 38 39 40 42 45 47 47 47
5 3 2 6 9 6 1 4 3 4 8 13 14 14 15 15 15 16 16 15 13 11 10 10 11 12 14 17 18 19 18 18 18 20 22 22 23 23 22 24 29 32 31 28 25 24 24 20 17 19 21 23 27 32 34 36 39 41 42 43 45 45 45
5 5 6 8 4 2 1 2 3 3 5 6 8 12 15 16 15 15 14 14 15 15 14 16 18 18 19 19 18 18 19 19 20 22 22 21 21 20 20 23 28 31 30 27 25 24 23 20 17 19 21 22 25 29 32 34 37 39 40 42 42 43 43
6 6 8 7 4 4 5 5 3 3 3 2 2 7 9 8 6 4 4 7 10 11 12 15 16 16 15 14 14 18 20 20 21 22 21 19 20 21 23 25 27 28 28 26 24 23 22 20 18 18 20 21 23 28 31 33 35 38 40 40 41 42 42
6 6 7 8 8 8 7 6 5 5 3 3 2 4 3 5 6 5 3 4 7 8 8 9 9 7 7 9 11 17 21 20 20 19 18 19 22 24 26 26 24 25 25 23 22 21 19 18 17 18 19 19 22 27 30 32 33 36 39 40 40 42 42
7 8 8 8 8 4 2 5 7 6 3 2 2 5 5 5 9 6 3 3 6 6 6 7 6 5 7 8 8 12 16 15 14 13 13 16 19 22 23 22 20 21 22 19 18 17 16 16 16 16 16 17 20 25 28 29 29 31 35 37 38 40 40
8 9 8 7 6 4 2 4 6 6 3 1 4 7 4 5 8 6 4 5 6 7 8 7 5 5 7 6 6 10 8 4 6 9 12 16 18 17 17 18 17 18 17 14 14 15 15 15 14 14 14 15 19 21 22 25 27 28 31 33 34 34 35
9 10 9 7 5 5 4 4 4 4 2 3 7 5 2 3 4 4 3 5 7 7 9 8 5 6 8 10 12 12 8 3 4 8 13 16 16 15 15 15 13 12 11 12 13 13 13 13 13 14 14 15 16 17 17 20 23 25 27 29 30 30 31
9 9 9 8 6 4 4 9 9 5 5 4 2 1 2 1 3 3 2 4 5 5 8 9 9 11 14 16 15 12 7 4 4 8 10 10 10 10 11 10 9 8 9 11 11 11 12 12 12 12 13 14 15 15 14 15 17 20 22 25 27 28 29
8 8 9 9 7 1 3 6 8 7 6 4 5 3 1 1 5 5 3 3 3 5 9 11 12 15 16 15 13 10 7 4 3 6 8 7 7 6 3 2 3 4 6 9 11 12 13 13 12 12 12 13 14 14 13 14 16 18 20 22 23 24 25
6 9 9 3 2 5 9 8 4 4 8 10 11 8 5 4 5 5 6 5 4 5 9 12 13 14 14 13 11 11 10 5 2 4 6 5 4 3 1 1 1 1 1 4 8 12 14 14 14 14 14 15 16 16 15 16 17 18 19 20 20 19 20
4 7 6 7 11 13 11 9 9 11 14 12 10 10 9 7 5 5 6 6 5 6 9 12 13 13 13 12 11 12 11 6 4 4 4 3 2 2 2 2 3 3 3 4 5 8 12 15 16 16 16 16 16 16 16 15 15 16 16 16 16 16 16
7 10 12 13 16 17 14 12 13 15 15 12 10 10 10 8 7 6 6 6 6 6 7 9 11 11 11 10 10 10 9 7 7 6 5 4 4 3 3 3 4 4 4 5 6 7 10 13 15 16 16 15 15 14 14 14 14 14 13 13 14 14 14
7 8 9 11 14 17 18 16 14 15 15 14 12 11 10 9 8 7 6 5 5 5 4 5 6 7 7 8 8 7 6 7 8 7 6 5 4 4 4 4 4 5 4 5 6 8 10 11 13 14 14 14 13 12 12 11 12 12 10 9 10 10 10
9 9 10 15 20 23 24 21 17 14 14 15 14 12 11 10 9 7 6 4 4 3 2 2 2 3 4 6 7 6 6 7 7 6 6 5 4 4 3 4 5 5 5 5 6 7 8 9 11 13 13 13 12 11 11 10 9 9 8 7 7 8 8
10 12 13 16 18 19 22 23 18 13 13 15 16 15 12 11 9 7 5 3 1 1 2 2 1 1 1 4 6 6 6 6 6 5 5 5 4 4 4 5 5 6 6 5 6 7 7 8 9 10 12 12 11 10 10 9 8 8 8 7 7 7 9
10 10 9 10 10 10 13 15 12 11 13 16 19 18 15 12 10 7 5 3 1 3 3 3 4 3 2 1 3 5 5 5 5 5 5 6 5 5 6 7 7 7 7 7 7 7 7 7 8 9 10 11 10 10 10 9 8 8 8 7 6 6 6
12 13 13 13 11 12 16 16 16 18 21 22 24 24 21 17 12 8 4 3 3 4 4 4 5 4 4 3 4 5 6 6 7 8 8 8 8 9 9 10 10 10 9 9 10 9 9 8 8 9 10 10 10 11 10 10 9 9 9 9 8 7 6
17 20 22 21 18 20 23 22 20 22 24 24 25 26 25 22 15 9 6 5 5 5 5 5 6 5 6 6 5 6 8 8 9 10 11 11 12 12 12 12 12 13 12 12 12 11 11 11 11 11 11 11 11 11 10 10 11 12 12 13 13 11 10
21 22 23 23 23 25 26 23 23 26 28 26 27 27 25 21 14 9 9 8 7 7 6 7 7 7 8 8 7 8 10 11 12 13 14 15 15 15 15 14 14 15 14 13 13 13 13 14 14 13 13 13 12 11 11 11 11 13 14 16 18 19 19
Wind_Direction
193 191 196 198 196 193 188 197 212 212 208 221 236 246 259 268 252 219 205 226 239 254 253 224 213 212 205 210 216 214 215 214 210 206 203 203 206 206 205 206 206 204 202 202 205 207 208 212 217 217 218 219 220 221 224 225 225 225 225 224 224 225 227
193 191 193 196 202 204 191 195 203 199 205 224 237 236 225 226 240 230 221 231 231 234 247 222 212 217 216 215 218 217 215 209 207 205 204 205 207 207 207 207 206 203 201 203 207 209 211 216 220 220 220 221 221 221 223 225 225 225 225 225 225 225 227
186 185 194 198 202 209 216 209 193 189 203 209 208 226 226 220 234 237 229 235 235 228 232 213 210 216 217 216 216 218 217 211 208 206 204 207 209 209 208 207 205 202 202 205 209 211 213 218 223 223 221 221 221 222 223 225 226 226 225 226 226 226 227
180 179 199 202 194 202 216 219 201 199 208 206 200 213 225 227 237 240 232 232 232 230 230 227 221 212 211 213 211 216 220 214 211 208 206 207 208 208 208 206 205 204 205 207 211 213 211 213 218 221 220 221 222 223 223 224 227 228 228 228 227 227 227
184 185 200 202 191 191 202 208 206 200 197 207 212 211 218 231 240 242 242 239 230 204 222 225 224 215 211 216 213 213 219 219 216 213 210 205 203 206 207 207 206 206 206 207 210 213 210 207 210 213 215 220 221 221 224 226 226 227 228 228 228 229 229
193 198 195 200 201 193 194 201 201 197 195 202 208 206 211 224 238 243 249 254 249 93 131 203 211 216 223 228 225 217 216 221 221 217 213 206 203 207 208 208 208 207 207 207 207 209 207 204 205 208 212 216 217 220 223 225 226 227 228 228 228 229 230
203 205 189 197 207 199 197 205 202 198 201 204 207 205 200 210 230 241 249 260 264 101 122 184 208 231 239 232 226 223 220 218 217 220 218 208 204 208 209 209 209 208 206 207 207 206 206 206 205 206 207 211 217 221 222 223 225 227 227 228 229 229 230
205 206 186 195 211 206 204 209 206 205 207 206 213 220 212 213 222 224 232 245 236 131 156 223 236 233 235 227 219 223 226 222 218 222 210 195 199 205 208 207 205 206 206 205 207 206 205 207 207 206 205 207 214 219 220 222 226 228 228 228 229 231 231
188 193 188 196 209 211 214 211 205 210 211 207 213 223 229 232 224 219 225 238 219 132 163 206 208 212 223 224 213 212 223 231 237 241 194 186 206 210 208 205 201 202 203 205 209 209 208 209 209 209 209 207 209 214 218 222 225 226 227 226 228 231 233
198 195 189 196 206 204 211 215 208 209 209 208 211 218 222 224 223 223 228 235 194 126 165 207 203 203 215 216 211 206 216 229 236 233 203 206 226 220 207 201 202 204 205 212 218 218 215 212 210 214 216 212 208 210 216 219 219 221 224 225 226 230 233
224 209 106 9 283 202 199 208 211 209 208 209 212 217 219 216 221 229 231 234 225 170 170 193 187 183 194 205 221 217 218 261 277 238 212 223 227 218 204 199 206 213 215 222 229 229 225 218 213 216 220 218 213 210 213 215 212 214 221 224 226 229 232
330 347 9 9 348 208 199 204 208 209 210 212 214 220 221 213 221 231 221 220 230 220 183 178 178 183 199 231 253 246 327 329 324 324 289 252 220 205 214 214 215 226 232 235 236 236 233 225 217 216 219 221 221 218 218 216 209 209 217 223 226 228 231
287 302 315 344 343 240 219 211 207 208 213 216 220 225 225 222 229 239 222 215 226 230 223 216 213 218 233 252 273 292 308 308 309 320 318 292 235 197 220 238 244 252 252 250 246 243 239 232 225 221 218 219 223 225 224 221 214 209 214 222 226 228 230
263 246 254 273 263 238 234 232 223 218 221 225 228 232 233 234 237 241 240 237 235 233 236 243 246 248 256 265 275 285 291 294 297 302 302 289 264 243 243 255 291 301 291 277 262 249 244 239 233 228 223 221 223 225 225 225 221 214 213 221 226 228 231
236 226 229 228 236 242 242 241 236 231 230 229 229 232 235 240 243 244 244 247 246 239 242 254 256 255 257 261 266 273 282 288 289 287 282 274 273 285 288 276 290 301 298 285 270 260 256 250 240 234 231 229 227 224 223 227 228 221 216 220 226 229 232
216 195 207 222 240 257 252 241 234 230 229 227 226 226 228 231 238 243 245 246 247 243 244 253 255 254 256 261 264 267 272 275 277 277 276 274 277 286 291 286 286 292 290 283 277 275 273 264 250 241 236 232 230 227 225 227 227 222 218 221 228 232 233
210 164 194 235 251 254 249 237 227 225 225 226 227 226 227 228 231 238 242 242 246 246 244 245 245 247 254 259 261 264 266 268 269 269 269 272 276 281 284 283 282 284 283 280 280 279 276 270 260 251 241 234 233 232 228 223 220 219 221 226 230 233 233
225 169 175 258 239 234 239 221 215 221 223 224 226 227 226 223 225 237 247 251 254 250 242 242 247 252 258 261 261 262 262 263 265 265 266 269 273 275 277 277 278 280 279 277 278 277 276 276 267 255 245 238 235 234 230 225 222 222 225 228 231 233 235
251 256 238 230 226 220 126 85 127 214 229 230 234 239 237 231 229 235 243 247 250 251 253 257 265 270 268 267 265 262 263 265 267 268 268 270 272 274 274 274 274 275 274 273 274 274 277 280 270 255 247 237 231 230 230 228 226 226 226 228 230 233 235
252 253 225 218 222 33 56 170 137 144 189 206 229 240 238 238 240 241 246 250 249 250 253 254 261 267 267 266 265 263 264 265 264 266 268 269 271 270 266 265 266 268 268 269 270 272 277 279 270 255 245 233 223 224 228 229 228 227 228 228 230 231 234
238 239 236 238 274 301 243 206 128 104 142 132 246 245 228 219 237 272 287 272 265 266 263 261 266 271 268 265 264 264 264 259 255 259 263 261 261 261 259 261 263 265 266 266 268 272 275 273 264 250 238 226 218 218 224 228 228 227 228 229 230 231 232
231 241 247 242 251 259 232 190 125 93 77 62 23 271 219 120 76 29 340 289 286 286 285 287 297 298 274 260 261 265 264 254 247 249 251 251 255 258 260 262 264 266 266 266 268 271 269 263 255 241 230 221 215 215 220 225 227 227 228 229 230 231 232
228 234 239 232 238 248 158 141 126 111 99 100 148 240 228 112 69 33 337 307 305 304 311 309 303 282 253 248 266 279 269 248 232 233 237 244 251 254 258 261 262 264 266 264 262 258 252 246 238 227 218 212 211 214 220 225 226 226 228 229 230 232 234
226 232 239 237 242 243 149 131 120 101 77 141 212 228 208 92 52 21 346 319 311 313 319 310 276 248 245 260 319 330 315 258 217 229 235 240 245 249 255 257 255 255 255 247 238 234 232 229 218 207 201 200 205 214 221 225 225 225 227 229 230 233 235
224 231 238 240 246 253 243 210 156 92 32 247 229 227 131 73 11 360 336 311 313 313 307 299 276 262 270 289 314 326 326 306 258 249 245 245 245 244 247 245 238 237 235 225 219 219 218 213 203 193 188 191 200 210 217 223 225 226 227 230 232 234 236
222 223 233 243 242 237 252 242 230 245 271 240 211 142 112 74 336 346 292 287 307 308 296 291 287 285 286 289 295 301 303 295 270 254 248 244 240 241 246 238 218 211 217 211 206 206 204 199 193 187 183 185 192 200 207 215 221 223 226 230 232 234 236
224 225 227 233 225 178 351 280 232 227 256 299 358 343 261 356 348 341 319 300 310 303 293 290 290 291 290 285 284 288 291 288 263 245 234 223 221 227 243 247 206 207 210 196 189 190 190 186 182 176 176 179 183 187 191 195 203 212 221 229 232 234 237
218 219 211 213 308 349 352 335 280 269 307 332 342 325 307 337 347 334 324 320 317 304 294 292 294 295 291 284 279 278 275 268 251 243 232 222 227 218 158 60 55 66 117 161 171 177 178 176 172 166 170 178 180 183 188 192 198 207 216 224 228 231 233
270 257 261 314 316 307 318 326 319 317 319 324 329 318 308 313 323 323 315 311 316 311 295 292 293 291 287 284 277 269 263 249 224 226 221 212 208 168 135 115 95 87 89 101 120 146 161 169 171 167 170 178 181 183 187 191 197 205 210 216 219 221 225
299 285 276 283 286 288 302 319 321 319 316 313 317 315 307 305 309 309 304 302 306 301 293 294 295 288 283 278 268 259 251 236 221 210 199 194 188 168 149 130 113 104 106 105 101 113 135 154 165 166 168 174 177 180 180 183 190 195 199 205 208 210 213
282 276 272 279 284 292 303 308 311 315 312 309 309 307 303 299 293 293 301 302 294 286 281 290 295 290 278 264 254 247 236 226 216 202 186 182 181 170 153 133 122 119 116 110 103 103 112 129 145 153 157 163 168 169 167 170 177 181 182 188 194 198 201
254 258 274 286 289 291 294 293 294 300 300 300 301 298 295 290 282 282 292 289 278 272 259 258 300 305 271 246 235 229 223 218 213 199 180 173 180 178 153 129 126 129 126 118 109 104 103 113 128 138 144 148 153 155 152 152 157 161 160 157 158 166 176
261 260 267 276 278 278 274 271 275 285 292 299 302 291 277 269 264 266 270 265 244 171 192 177 131 104 228 231 223 213 207 205 204 193 172 161 164 161 140 128 126 125 122 118 112 104 101 107 118 129 136 139 141 144 147 148 148 151 154 152 149 161 178
258 255 259 264 268 272 265 266 285 305 301 303 306 297 283 268 252 240 243 239 147 111 141 152 143 128 100 135 200 180 165 168 168 157 151 146 137 128 119 113 113 114 112 110 106 101 99 101 106 113 121 127 132 136 143 148 151 156 160 156 152 156 169
261 263 267 266 270 282 280 281 298 302 296 297 300 298 295 285 261 231 216 199 140 112 116 133 139 129 104 104 137 135 127 130 129 127 130 127 117 113 111 108 109 109 107 105 101 97 94 93 94 96 100 103 111 118 123 125 129 138 145 145 146 149 152
268 269 271 271 270 272 275 280 289 289 288 291 290 288 291 289 267 221 183 160 133 115 117 124 123 116 105 99 101 101 99 103 109 116 121 118 114 112 110 109 109 108 104 103 101 98 98 97 95 93 90 88 90 95 96 96 100 108 114 117 118 118 117
264 267 269 269 266 266 271 279 282 279 279 283 282 278 280 279 259 207 167 148 133 125 126 121 112 111 108 99 93 96 96 94 97 101 102 104 107 109 107 105 105 103 101 101 101 100 101 100 96 94 92 89 88 89 90 90 92 94 97 98 98 99 100